"datetime","temp","dp","rain_mm","uv","solar","mb","wind_mph","gust_mph","windchill","rh"
"2015-07-04 00:00:00",18.4,15.3,0.0,0.0,0,1015.6,1,1,"",82
"2015-07-04 00:01:00",18.4,15.3,0.0,0.0,0,1015.6,0,2,"",82
"2015-07-04 00:02:00",18.4,15.3,0.0,0.0,0,1015.6,1,3,"",82
"2015-07-04 00:03:00",18.4,15.3,0.0,0.0,0,1015.5,1,2,"",82
"2015-07-04 00:04:00",18.4,15.3,0.0,0.0,0,1015.5,1,2,"",82
"2015-07-04 00:05:00",18.4,15.5,0.0,0.0,0,1015.6,1,2,"",83
"2015-07-04 00:06:00",18.4,15.3,0.0,0.0,0,1015.6,1,2,"",82
"2015-07-04 00:07:00",18.4,15.3,0.0,0.0,0,1015.7,1,3,"",82
"2015-07-04 00:08:00",18.4,15.3,0.0,0.0,0,1015.7,1,1,"",82
"2015-07-04 00:09:00",18.4,15.5,0.0,0.0,0,1015.7,1,2,"",83
"2015-07-04 00:10:00",18.4,15.5,0.6,0.0,0,1015.6,1,2,"",83
"2015-07-04 00:11:00",18.4,15.7,1.0,0.0,0,1015.4,1,2,"",84
"2015-07-04 00:12:00",18.4,15.9,1.6,0.0,0,1015.3,1,2,"",85
"2015-07-04 00:13:00",18.4,16.0,1.6,0.0,0,1015.3,1,1,"",86
"2015-07-04 00:14:00",18.3,16.1,1.6,0.0,0,1015.3,0,1,"",87
"2015-07-04 00:15:00",18.2,16.0,1.6,0.0,0,1015.2,0,0,"",87
"2015-07-04 00:16:00",18.1,16.1,1.6,0.0,0,1015.2,0,1,"",88
"2015-07-04 00:17:00",18.0,16.0,1.6,0.0,0,1015.2,0,1,"",88
"2015-07-04 00:18:00",17.9,16.1,1.6,0.0,0,1015.1,0,0,"",89
"2015-07-04 00:19:00",17.8,16.0,1.6,0.0,0,1015.1,0,1,"",89
"2015-07-04 00:20:00",17.7,16.1,1.6,0.0,0,1015.1,0,1,"",90
"2015-07-04 00:21:00",17.7,16.0,1.6,0.0,0,1015.1,0,0,"",90
"2015-07-04 00:22:00",17.6,15.9,1.6,0.0,0,1015.0,0,0,"",90
"2015-07-04 00:23:00",17.5,16.0,1.6,0.0,0,1015.1,0,1,"",91
"2015-07-04 00:24:00",17.5,16.0,1.6,0.0,0,1015.1,0,0,"",91
"2015-07-04 00:25:00",17.4,15.9,1.6,0.0,0,1015.1,0,1,"",91
"2015-07-04 00:26:00",17.4,16.1,1.6,0.0,0,1015.0,0,1,"",92
"2015-07-04 00:27:00",17.4,16.1,1.6,0.0,0,1015.0,0,1,"",92
"2015-07-04 00:28:00",17.3,16.0,1.6,0.0,0,1015.0,0,1,"",92
"2015-07-04 00:29:00",17.3,16.0,1.6,0.0,0,1015.0,0,1,"",92
"2015-07-04 00:30:00",17.3,16.1,1.6,0.0,0,1015.0,0,1,"",93
"2015-07-04 00:31:00",17.3,16.1,1.6,0.0,0,1015.1,0,1,"",93
"2015-07-04 00:32:00",17.3,16.1,1.6,0.0,0,1015.1,0,1,"",93
"2015-07-04 00:33:00",17.2,16.1,1.6,0.0,0,1015.1,0,1,"",93
"2015-07-04 00:34:00",17.2,16.1,1.6,0.0,0,1015.0,0,1,"",93
"2015-07-04 00:35:00",17.2,16.1,1.6,0.0,0,1015.0,0,1,"",93
"2015-07-04 00:36:00",17.2,16.2,1.6,0.0,0,1015.0,0,0,"",94
"2015-07-04 00:37:00",17.2,16.2,1.6,0.0,0,1015.0,0,1,"",94
"2015-07-04 00:38:00",17.2,16.2,1.6,0.0,0,1014.9,0,1,"",94
"2015-07-04 00:39:00",17.1,16.2,1.6,0.0,0,1014.9,0,1,"",94
"2015-07-04 00:40:00",17.1,16.1,1.6,0.0,0,1014.9,0,1,"",94
"2015-07-04 00:41:00",17.1,16.1,1.6,0.0,0,1014.9,0,1,"",94
"2015-07-04 00:42:00",17.1,16.1,1.6,0.0,0,1014.8,0,1,"",94
"2015-07-04 00:43:00",17.0,16.1,1.6,0.0,0,1014.8,0,1,"",94
"2015-07-04 00:44:00",17.0,16.0,1.6,0.0,0,1014.8,0,1,"",94
"2015-07-04 00:45:00",17.0,16.2,1.6,0.0,0,1014.8,0,1,"",95
"2015-07-04 00:46:00",17.0,16.2,1.6,0.0,0,1014.8,0,1,"",95
"2015-07-04 00:47:00",17.0,16.2,1.6,0.0,0,1014.8,0,1,"",95
"2015-07-04 00:48:00",17.0,16.2,1.6,0.0,0,1014.7,0,1,"",95
"2015-07-04 00:49:00",17.0,16.2,1.6,0.0,0,1014.6,0,1,"",95
"2015-07-04 00:50:00",16.9,16.1,1.6,0.0,0,1014.6,0,1,"",95
"2015-07-04 00:51:00",16.9,16.1,1.6,0.0,0,1014.7,0,0,"",95
"2015-07-04 00:52:00",16.9,16.1,1.6,0.0,0,1014.7,0,1,"",95
"2015-07-04 00:53:00",16.9,16.1,1.6,0.0,0,1014.7,0,0,"",95
"2015-07-04 00:54:00",16.9,16.0,1.6,0.0,0,1014.8,0,1,"",94
"2015-07-04 00:55:00",16.8,16.0,1.6,0.0,0,1014.8,0,1,"",95
"2015-07-04 00:56:00",16.8,16.0,1.6,0.0,0,1014.8,0,1,"",95
"2015-07-04 00:57:00",16.8,16.0,1.6,0.0,0,1014.8,0,1,"",95
"2015-07-04 00:58:00",16.8,16.0,1.6,0.0,0,1014.8,0,1,"",95
"2015-07-04 00:59:00",16.8,16.0,1.6,0.0,0,1014.8,0,1,"",95
"2015-07-04 01:00:00",16.8,16.0,1.6,0.0,0,1014.8,0,1,"",95
"2015-07-04 01:01:00",16.8,16.2,1.6,0.0,0,1014.9,0,1,"",96
"2015-07-04 01:02:00",16.8,16.2,1.6,0.0,0,1014.8,0,1,"",96
"2015-07-04 01:03:00",16.8,16.2,1.6,0.0,0,1014.9,0,1,"",96
"2015-07-04 01:04:00",16.8,16.0,1.6,0.0,0,1014.9,0,1,"",95
"2015-07-04 01:05:00",16.8,16.0,1.6,0.0,0,1014.9,0,0,"",95
"2015-07-04 01:06:00",16.8,16.0,1.6,0.0,0,1014.9,0,1,"",95
"2015-07-04 01:07:00",16.8,16.1,1.6,0.0,0,1014.9,0,0,"",96
"2015-07-04 01:08:00",16.8,16.1,1.6,0.0,0,1014.9,0,0,"",96
"2015-07-04 01:09:00",16.8,16.1,1.6,0.0,0,1014.8,0,1,"",96
"2015-07-04 01:10:00",16.8,16.1,1.6,0.0,0,1014.8,1,2,"",96
"2015-07-04 01:11:00",16.8,16.1,1.6,0.0,0,1014.8,1,2,"",96
"2015-07-04 01:12:00",16.8,16.1,1.6,0.0,0,1014.9,1,2,"",96
"2015-07-04 01:13:00",16.7,16.1,1.6,0.0,0,1014.9,1,2,"",96
"2015-07-04 01:14:00",16.7,16.1,1.6,0.0,0,1014.9,0,2,"",96
"2015-07-04 01:15:00",16.7,16.1,1.6,0.0,0,1014.8,1,2,"",96
"2015-07-04 01:16:00",16.7,16.1,1.6,0.0,0,1014.8,1,1,"",96
"2015-07-04 01:17:00",16.7,16.0,1.6,0.0,0,1014.8,1,1,"",96
"2015-07-04 01:18:00",16.7,16.0,1.6,0.0,0,1014.8,0,0,"",96
"2015-07-04 01:19:00",16.7,16.0,1.6,0.0,0,1014.8,0,1,"",96
"2015-07-04 01:20:00",16.7,16.0,1.6,0.0,0,1014.8,1,2,"",96
"2015-07-04 01:21:00",16.7,16.0,1.6,0.0,0,1014.7,1,1,"",96
"2015-07-04 01:22:00",16.6,16.0,1.6,0.0,0,1014.7,1,2,"",96
"2015-07-04 01:23:00",16.6,16.0,1.6,0.0,0,1014.8,0,1,"",96
"2015-07-04 01:24:00",16.6,15.9,1.6,0.0,0,1014.8,0,0,"",96
"2015-07-04 01:25:00",16.6,15.9,1.6,0.0,0,1014.8,0,1,"",96
"2015-07-04 01:26:00",16.6,15.9,1.6,0.0,0,1014.7,0,1,"",96
"2015-07-04 01:27:00",16.6,15.9,1.6,0.0,0,1014.6,0,1,"",96
"2015-07-04 01:28:00",16.6,15.9,1.6,0.0,0,1014.6,0,1,"",96
"2015-07-04 01:29:00",16.6,15.9,1.6,0.0,0,1014.6,0,1,"",96
"2015-07-04 01:30:00",16.6,15.9,1.6,0.0,0,1014.7,1,2,"",96
"2015-07-04 01:31:00",16.6,15.9,1.6,0.0,0,1014.6,1,1,"",96
"2015-07-04 01:32:00",16.5,15.9,1.6,0.0,0,1014.6,0,1,"",96
"2015-07-04 01:33:00",16.5,15.9,1.6,0.0,0,1014.7,0,1,"",96
"2015-07-04 01:34:00",16.5,15.8,1.6,0.0,0,1014.6,0,2,"",96
"2015-07-04 01:35:00",16.4,15.8,1.6,0.0,0,1014.6,1,2,"",96
"2015-07-04 01:36:00",16.5,15.8,1.6,0.0,0,1014.6,1,1,"",96
"2015-07-04 01:37:00",16.5,15.9,1.6,0.0,0,1014.6,0,1,"",96
"2015-07-04 01:38:00",16.5,15.8,1.6,0.0,0,1014.7,1,1,"",96
"2015-07-04 01:39:00",16.4,15.8,1.6,0.0,0,1014.7,0,1,"",96
"2015-07-04 01:40:00",16.4,15.8,1.6,0.0,0,1014.7,0,1,"",96
"2015-07-04 01:41:00",16.4,15.8,1.6,0.0,0,1014.7,0,1,"",96
"2015-07-04 01:42:00",16.4,15.7,1.6,0.0,0,1014.6,0,1,"",96
"2015-07-04 01:43:00",16.3,15.7,1.6,0.0,0,1014.6,1,2,"",96
"2015-07-04 01:44:00",16.3,15.9,1.6,0.0,0,1014.6,0,1,"",97
"2015-07-04 01:45:00",16.3,15.8,1.6,0.0,0,1014.6,1,1,"",97
"2015-07-04 01:46:00",16.3,15.8,1.6,0.0,0,1014.6,0,1,"",97
"2015-07-04 01:47:00",16.2,15.8,1.6,0.0,0,1014.5,1,1,"",97
"2015-07-04 01:48:00",16.2,15.7,1.6,0.0,0,1014.6,0,2,"",97
"2015-07-04 01:49:00",16.2,15.7,1.6,0.0,0,1014.6,1,2,"",97
"2015-07-04 01:50:00",16.2,15.7,1.6,0.0,0,1014.6,1,2,"",97
"2015-07-04 01:51:00",16.3,15.8,1.6,0.0,0,1014.6,1,2,"",97
"2015-07-04 01:52:00",16.3,15.8,1.6,0.0,0,1014.6,1,1,"",97
"2015-07-04 01:53:00",16.3,15.8,1.6,0.0,0,1014.7,0,2,"",97
"2015-07-04 01:54:00",16.3,15.8,1.6,0.0,0,1014.9,1,3,"",97
"2015-07-04 01:55:00",16.3,15.8,1.6,0.0,0,1014.9,1,2,"",97
"2015-07-04 01:56:00",16.3,15.8,1.6,0.0,0,1014.9,1,2,"",97
"2015-07-04 01:57:00",16.3,15.8,1.6,0.0,0,1015.1,1,2,"",97
"2015-07-04 01:58:00",16.3,15.8,1.6,0.0,0,1015.2,1,1,"",97
"2015-07-04 01:59:00",16.3,15.9,1.6,0.0,0,1015.2,0,1,"",97
"2015-07-04 02:00:00",16.3,15.9,1.6,0.0,0,1015.1,0,1,"",97
"2015-07-04 02:01:00",16.3,15.9,1.6,0.0,0,1015.1,0,1,"",97
"2015-07-04 02:02:00",16.3,15.9,1.6,0.0,0,1015.0,1,2,"",97
"2015-07-04 02:03:00",16.3,15.9,1.6,0.0,0,1015.0,1,2,"",97
"2015-07-04 02:04:00",16.3,15.9,1.6,0.0,0,1015.0,1,2,"",97
"2015-07-04 02:05:00",16.4,15.9,1.6,0.0,0,1015.0,1,2,"",97
"2015-07-04 02:06:00",16.4,15.9,1.6,0.0,0,1015.1,1,1,"",97
"2015-07-04 02:07:00",16.3,15.9,1.6,0.0,0,1015.1,0,1,"",97
"2015-07-04 02:08:00",16.3,15.9,1.6,0.0,0,1015.1,0,1,"",97
"2015-07-04 02:09:00",16.3,15.9,1.6,0.0,0,1015.1,0,1,"",97
"2015-07-04 02:10:00",16.3,15.9,1.6,0.0,0,1015.0,0,0,"",97
"2015-07-04 02:11:00",16.3,15.9,1.6,0.0,0,1015.0,0,1,"",97
"2015-07-04 02:12:00",16.3,15.9,1.6,0.0,0,1014.9,1,1,"",97
"2015-07-04 02:13:00",16.3,15.9,1.6,0.0,0,1014.9,0,1,"",97
"2015-07-04 02:14:00",16.3,15.9,1.6,0.0,0,1014.8,0,1,"",97
"2015-07-04 02:15:00",16.3,15.9,1.6,0.0,0,1014.7,1,1,"",97
"2015-07-04 02:16:00",16.3,15.8,1.6,0.0,0,1014.7,0,1,"",97
"2015-07-04 02:17:00",16.3,15.8,1.6,0.0,0,1014.7,0,1,"",97
"2015-07-04 02:18:00",16.3,15.8,1.6,0.0,0,1014.6,0,0,"",97
"2015-07-04 02:19:00",16.3,15.8,1.6,0.0,0,1014.6,0,1,"",97
"2015-07-04 02:20:00",16.3,15.8,1.6,0.0,0,1014.7,0,1,"",97
"2015-07-04 02:21:00",16.3,15.8,1.6,0.0,0,1014.8,0,0,"",97
"2015-07-04 02:22:00",16.3,15.8,1.6,0.0,0,1014.7,0,1,"",97
"2015-07-04 02:23:00",16.3,15.8,1.6,0.0,0,1014.6,0,1,"",97
"2015-07-04 02:24:00",16.3,15.8,1.6,0.0,0,1014.7,0,1,"",97
"2015-07-04 02:25:00",16.3,15.8,1.6,0.0,0,1014.6,0,1,"",97
"2015-07-04 02:26:00",16.3,15.8,1.6,0.0,0,1014.6,0,1,"",97
"2015-07-04 02:27:00",16.3,15.8,1.6,0.0,0,1014.6,0,0,"",97
"2015-07-04 02:28:00",16.3,15.8,1.6,0.0,0,1014.6,0,0,"",97
"2015-07-04 02:29:00",16.3,15.8,1.6,0.0,0,1014.7,0,0,"",97
"2015-07-04 02:30:00",16.3,15.8,1.6,0.0,0,1014.7,0,0,"",97
"2015-07-04 02:31:00",16.3,15.8,1.6,0.0,0,1014.7,0,0,"",97
"2015-07-04 02:32:00",16.3,15.8,1.6,0.0,0,1014.6,0,1,"",97
"2015-07-04 02:33:00",16.3,15.8,1.6,0.0,0,1014.5,0,1,"",97
"2015-07-04 02:34:00",16.3,15.8,1.6,0.0,0,1014.4,0,1,"",97
"2015-07-04 02:35:00",16.2,15.8,1.6,0.0,0,1014.3,0,1,"",97
"2015-07-04 02:36:00",16.2,15.7,1.6,0.0,0,1014.3,0,0,"",97
"2015-07-04 02:37:00",16.2,15.7,1.6,0.0,0,1014.3,0,1,"",97
"2015-07-04 02:38:00",16.2,15.7,1.6,0.0,0,1014.3,0,1,"",97
"2015-07-04 02:39:00",16.2,15.7,1.6,0.0,0,1014.3,0,1,"",97
"2015-07-04 02:40:00",16.2,15.7,1.6,0.0,0,1014.4,0,2,"",97
"2015-07-04 02:41:00",16.2,15.7,1.6,0.0,0,1014.3,1,2,"",97
"2015-07-04 02:42:00",16.2,15.7,1.6,0.0,0,1014.3,0,1,"",97
"2015-07-04 02:43:00",16.2,15.7,1.6,0.0,0,1014.3,0,0,"",97
"2015-07-04 02:44:00",16.2,15.7,1.6,0.0,0,1014.3,0,0,"",97
"2015-07-04 02:45:00",16.2,15.7,1.6,0.0,0,1014.3,0,0,"",97
"2015-07-04 02:46:00",16.2,15.7,1.6,0.0,0,1014.3,0,0,"",97
"2015-07-04 02:47:00",16.2,15.7,1.6,0.0,0,1014.2,0,0,"",97
"2015-07-04 02:48:00",16.1,15.7,1.6,0.0,0,1014.2,0,0,"",97
"2015-07-04 02:49:00",16.1,15.8,1.6,0.0,0,1014.2,0,0,"",98
"2015-07-04 02:50:00",16.1,15.8,1.6,0.0,0,1014.2,0,0,"",98
"2015-07-04 02:51:00",16.1,15.8,1.6,0.0,0,1014.2,0,0,"",98
"2015-07-04 02:52:00",16.1,15.7,1.6,0.0,0,1014.2,0,0,"",97
"2015-07-04 02:53:00",16.1,15.7,1.6,0.0,0,1014.2,0,0,"",97
"2015-07-04 02:54:00",16.1,15.7,1.6,0.0,0,1014.1,0,0,"",97
"2015-07-04 02:55:00",16.1,15.7,1.6,0.0,0,1014.1,0,0,"",97
"2015-07-04 02:56:00",16.1,15.7,1.6,0.0,0,1014.1,0,0,"",97
"2015-07-04 02:57:00",16.1,15.7,1.6,0.0,0,1014.1,0,0,"",97
"2015-07-04 02:58:00",16.1,15.7,1.6,0.0,0,1014.1,0,0,"",97
"2015-07-04 02:59:00",16.1,15.7,1.6,0.0,0,1014.1,0,0,"",97
"2015-07-04 03:00:00",16.0,15.7,1.6,0.0,0,1014.0,0,0,"",98
"2015-07-04 03:01:00",16.0,15.7,1.6,0.0,0,1014.0,0,0,"",98
"2015-07-04 03:02:00",15.9,15.6,1.6,0.0,0,1013.9,0,0,"",98
"2015-07-04 03:03:00",15.9,15.4,1.6,0.0,0,1013.9,0,1,"",97
"2015-07-04 03:04:00",15.9,15.4,1.6,0.0,0,1013.9,0,1,"",97
"2015-07-04 03:05:00",15.8,15.4,1.6,0.0,0,1014.0,0,0,"",97
"2015-07-04 03:06:00",15.8,15.3,1.6,0.0,0,1014.0,0,0,"",97
"2015-07-04 03:07:00",15.8,15.5,1.6,0.0,0,1014.0,0,0,"",98
"2015-07-04 03:08:00",15.8,15.5,1.6,0.0,0,1014.0,0,0,"",98
"2015-07-04 03:09:00",15.8,15.5,1.6,0.0,0,1014.0,0,0,"",98
"2015-07-04 03:10:00",15.8,15.5,1.6,0.0,0,1014.0,0,0,"",98
"2015-07-04 03:11:00",15.8,15.5,1.6,0.0,0,1013.9,0,1,"",98
"2015-07-04 03:12:00",15.8,15.5,1.6,0.0,0,1014.0,0,1,"",98
"2015-07-04 03:13:00",15.8,15.5,1.6,0.0,0,1014.0,1,1,"",98
"2015-07-04 03:14:00",15.8,15.5,1.6,0.0,0,1014.0,0,1,"",98
"2015-07-04 03:15:00",15.8,15.5,1.6,0.0,0,1013.9,0,1,"",98
"2015-07-04 03:16:00",15.8,15.5,1.6,0.0,0,1013.9,0,0,"",98
"2015-07-04 03:17:00",15.8,15.5,1.6,0.0,0,1013.9,0,0,"",98
"2015-07-04 03:18:00",15.9,15.6,1.6,0.0,0,1013.9,0,0,"",98
"2015-07-04 03:19:00",15.9,15.6,1.6,0.0,0,1013.9,0,0,"",98
"2015-07-04 03:20:00",15.9,15.6,1.6,0.0,0,1013.9,0,0,"",98
"2015-07-04 03:21:00",15.9,15.6,1.6,0.0,0,1013.9,0,0,"",98
"2015-07-04 03:22:00",15.9,15.6,1.6,0.0,0,1013.9,0,1,"",98
"2015-07-04 03:23:00",15.9,15.6,1.6,0.0,0,1013.9,0,1,"",98
"2015-07-04 03:24:00",15.9,15.6,1.6,0.0,0,1014.0,0,1,"",98
"2015-07-04 03:25:00",15.9,15.6,1.6,0.0,0,1013.9,0,0,"",98
"2015-07-04 03:26:00",15.9,15.6,1.6,0.0,0,1013.9,0,0,"",98
"2015-07-04 03:27:00",15.9,15.6,1.6,0.0,0,1014.0,0,0,"",98
"2015-07-04 03:28:00",15.9,15.6,1.6,0.0,0,1014.0,0,0,"",98
"2015-07-04 03:29:00",15.9,15.6,1.6,0.0,0,1013.9,0,0,"",98
"2015-07-04 03:30:00",15.9,15.6,1.6,0.0,0,1013.9,0,0,"",98
"2015-07-04 03:31:00",15.9,15.6,1.6,0.0,0,1013.9,0,0,"",98
"2015-07-04 03:32:00",15.9,15.6,1.6,0.0,0,1013.9,0,0,"",98
"2015-07-04 03:33:00",15.9,15.6,1.6,0.0,0,1014.0,0,1,"",98
"2015-07-04 03:34:00",15.9,15.6,1.6,0.0,0,1014.1,0,1,"",98
"2015-07-04 03:35:00",15.9,15.6,1.6,0.0,0,1014.2,0,1,"",98
"2015-07-04 03:36:00",15.9,15.6,1.6,0.0,0,1014.2,0,0,"",98
"2015-07-04 03:37:00",15.9,15.6,1.6,0.0,0,1014.1,0,0,"",98
"2015-07-04 03:38:00",15.9,15.6,1.6,0.0,0,1014.2,0,0,"",98
"2015-07-04 03:39:00",15.9,15.6,1.6,0.0,0,1014.2,0,0,"",98
"2015-07-04 03:40:00",15.9,15.6,1.6,0.0,0,1014.2,0,0,"",98
"2015-07-04 03:41:00",15.9,15.6,1.6,0.0,0,1014.2,0,0,"",98
"2015-07-04 03:42:00",15.9,15.6,1.6,0.0,0,1014.2,0,0,"",98
"2015-07-04 03:43:00",15.9,15.6,1.6,0.0,0,1014.1,0,0,"",98
"2015-07-04 03:44:00",15.9,15.6,1.6,0.0,0,1014.1,0,0,"",98
"2015-07-04 03:45:00",15.9,15.6,1.6,0.0,0,1014.1,0,0,"",98
"2015-07-04 03:46:00",15.9,15.6,1.6,0.0,0,1014.1,0,0,"",98
"2015-07-04 03:47:00",15.9,15.6,1.6,0.0,0,1014.1,0,0,"",98
"2015-07-04 03:48:00",15.9,15.6,1.6,0.0,0,1014.2,0,1,"",98
"2015-07-04 03:49:00",15.9,15.6,1.6,0.0,0,1014.2,0,1,"",98
"2015-07-04 03:50:00",15.9,15.6,1.6,0.0,0,1014.2,0,1,"",98
"2015-07-04 03:51:00",15.9,15.6,1.6,0.0,0,1014.2,0,0,"",98
"2015-07-04 03:52:00",15.9,15.6,1.6,0.0,0,1014.3,0,1,"",98
"2015-07-04 03:53:00",15.9,15.6,1.6,0.0,0,1014.3,1,1,"",98
"2015-07-04 03:54:00",15.9,15.6,1.6,0.0,0,1014.3,0,0,"",98
"2015-07-04 03:55:00",15.9,15.6,1.6,0.0,0,1014.4,0,1,"",98
"2015-07-04 03:56:00",15.9,15.6,1.6,0.0,0,1014.4,0,1,"",98
"2015-07-04 03:57:00",15.9,15.6,1.6,0.0,0,1014.4,0,0,"",98
"2015-07-04 03:58:00",15.9,15.6,1.6,0.0,0,1014.4,0,0,"",98
"2015-07-04 03:59:00",15.9,15.6,1.6,0.0,0,1014.4,0,0,"",98
"2015-07-04 04:00:00",15.9,15.6,1.6,0.0,0,1014.4,0,0,"",98
"2015-07-04 04:01:00",15.9,15.6,1.6,0.0,0,1014.4,0,0,"",98
"2015-07-04 04:02:00",15.9,15.6,1.6,0.0,0,1014.4,0,0,"",98
"2015-07-04 04:03:00",15.9,15.6,1.6,0.0,0,1014.4,0,0,"",98
"2015-07-04 04:04:00",15.9,15.6,1.6,0.0,0,1014.4,0,1,"",98
"2015-07-04 04:05:00",15.9,15.6,1.6,0.0,0,1014.5,0,0,"",98
"2015-07-04 04:06:00",15.9,15.6,1.6,0.0,0,1014.5,0,0,"",98
"2015-07-04 04:07:00",15.9,15.6,1.6,0.0,0,1014.5,0,0,"",98
"2015-07-04 04:08:00",15.9,15.6,1.6,0.0,0,1014.5,0,0,"",98
"2015-07-04 04:09:00",15.9,15.6,1.6,0.0,0,1014.4,0,0,"",98
"2015-07-04 04:10:00",16.0,15.6,1.6,0.0,0,1014.4,0,1,"",97
"2015-07-04 04:11:00",16.0,15.7,1.6,0.0,0,1014.4,0,1,"",98
"2015-07-04 04:12:00",16.0,15.7,1.6,0.0,0,1014.3,0,0,"",98
"2015-07-04 04:13:00",16.0,15.7,1.6,0.0,0,1014.3,0,0,"",98
"2015-07-04 04:14:00",16.0,15.7,1.6,0.0,0,1014.3,0,1,"",98
"2015-07-04 04:15:00",16.0,15.7,1.6,0.0,0,1014.3,0,1,"",98
"2015-07-04 04:16:00",16.0,15.7,1.6,0.0,0,1014.3,0,1,"",98
"2015-07-04 04:17:00",16.0,15.7,1.6,0.0,0,1014.4,0,0,"",98
"2015-07-04 04:18:00",16.0,15.7,1.6,0.0,0,1014.4,0,0,"",98
"2015-07-04 04:19:00",16.0,15.7,1.6,0.0,0,1014.4,0,0,"",98
"2015-07-04 04:20:00",16.0,15.7,1.6,0.0,0,1014.3,0,0,"",98
"2015-07-04 04:21:00",16.0,15.7,1.6,0.0,0,1014.3,0,0,"",98
"2015-07-04 04:22:00",16.1,15.7,1.8,0.0,0,1014.2,0,1,"",97
"2015-07-04 04:23:00",16.1,15.7,1.8,0.0,0,1014.2,0,2,"",97
"2015-07-04 04:24:00",16.1,15.7,1.8,0.0,0,1014.2,1,2,"",97
"2015-07-04 04:25:00",16.1,15.7,1.8,0.0,0,1014.2,0,1,"",97
"2015-07-04 04:26:00",16.1,15.7,1.8,0.0,0,1014.2,0,0,"",97
"2015-07-04 04:27:00",16.1,15.7,1.8,0.0,0,1014.1,0,0,"",97
"2015-07-04 04:28:00",16.1,15.8,1.8,0.0,0,1014.1,0,1,"",98
"2015-07-04 04:29:00",16.1,15.8,1.8,0.0,0,1014.1,0,1,"",98
"2015-07-04 04:30:00",16.1,15.8,1.8,0.0,0,1014.1,0,1,"",98
"2015-07-04 04:31:00",16.1,15.8,1.8,0.0,0,1014.1,0,1,"",98
"2015-07-04 04:32:00",16.1,15.8,1.8,0.0,0,1014.1,0,1,"",98
"2015-07-04 04:33:00",16.1,15.8,1.8,0.0,0,1014.1,0,0,"",98
"2015-07-04 04:34:00",16.1,15.8,1.8,0.0,0,1014.1,0,1,"",98
"2015-07-04 04:35:00",16.1,15.8,1.8,0.0,0,1014.1,0,1,"",98
"2015-07-04 04:36:00",16.1,15.8,1.8,0.0,0,1014.1,0,1,"",98
"2015-07-04 04:37:00",16.1,15.8,1.8,0.0,0,1014.1,1,1,"",98
"2015-07-04 04:38:00",16.1,15.8,1.8,0.0,0,1014.0,0,1,"",98
"2015-07-04 04:39:00",16.1,15.8,1.8,0.0,0,1014.0,0,0,"",98
"2015-07-04 04:40:00",16.1,15.8,1.8,0.0,0,1014.0,0,0,"",98
"2015-07-04 04:41:00",16.1,15.8,1.8,0.0,0,1014.0,0,0,"",98
"2015-07-04 04:42:00",16.1,15.8,1.8,0.0,0,1014.0,0,1,"",98
"2015-07-04 04:43:00",16.1,15.8,1.8,0.0,0,1014.0,0,1,"",98
"2015-07-04 04:44:00",16.1,15.8,1.8,0.0,0,1014.0,1,2,"",98
"2015-07-04 04:45:00",16.2,15.8,1.8,0.0,0,1014.1,1,2,"",97
"2015-07-04 04:46:00",16.2,15.9,1.8,0.0,0,1014.1,1,1,"",98
"2015-07-04 04:47:00",16.2,15.9,1.8,0.0,0,1014.1,0,1,"",98
"2015-07-04 04:48:00",16.2,15.9,1.8,0.0,0,1014.1,1,1,"",98
"2015-07-04 04:49:00",16.2,15.9,1.8,0.0,0,1014.2,1,1,"",98
"2015-07-04 04:50:00",16.2,15.9,1.8,0.0,0,1014.2,0,1,"",98
"2015-07-04 04:51:00",16.2,15.9,1.8,0.0,0,1014.3,1,2,"",98
"2015-07-04 04:52:00",16.2,15.9,1.8,0.0,0,1014.4,1,2,"",98
"2015-07-04 04:53:00",16.2,15.9,1.8,0.0,0,1014.4,0,1,"",98
"2015-07-04 04:54:00",16.2,15.9,1.8,0.0,0,1014.4,0,1,"",98
"2015-07-04 04:55:00",16.2,15.9,1.8,0.0,0,1014.5,0,1,"",98
"2015-07-04 04:56:00",16.2,15.9,1.8,0.0,0,1014.5,1,1,"",98
"2015-07-04 04:57:00",16.2,15.9,1.8,0.0,0,1014.6,0,0,"",98
"2015-07-04 04:58:00",16.2,15.9,1.8,0.0,0,1014.5,0,0,"",98
"2015-07-04 04:59:00",16.2,15.9,1.8,0.0,0,1014.5,0,0,"",98
"2015-07-04 05:00:00",16.2,15.9,1.8,0.0,0,1014.5,0,1,"",98
"2015-07-04 05:01:00",16.2,15.9,1.8,0.0,0,1014.5,0,1,"",98
"2015-07-04 05:02:00",16.2,15.8,1.8,0.0,0,1014.5,0,0,"",97
"2015-07-04 05:03:00",16.2,15.8,1.8,0.0,0,1014.6,0,0,"",97
"2015-07-04 05:04:00",16.2,15.9,1.8,0.0,0,1014.6,0,0,"",98
"2015-07-04 05:05:00",16.2,15.8,1.8,0.0,0,1014.6,0,0,"",97
"2015-07-04 05:06:00",16.2,15.9,1.8,0.0,0,1014.6,0,1,"",98
"2015-07-04 05:07:00",16.2,15.8,1.8,0.0,5,1014.6,0,1,"",97
"2015-07-04 05:08:00",16.1,15.8,1.8,0.0,5,1014.6,0,0,"",98
"2015-07-04 05:09:00",16.1,15.8,1.8,0.0,5,1014.7,0,0,"",98
"2015-07-04 05:10:00",16.1,15.8,1.8,0.0,5,1014.7,0,0,"",98
"2015-07-04 05:11:00",16.1,15.8,1.8,0.0,5,1014.8,0,0,"",98
"2015-07-04 05:12:00",16.1,15.8,1.8,0.0,5,1014.8,0,0,"",98
"2015-07-04 05:13:00",16.1,15.8,1.8,0.0,5,1014.8,0,0,"",98
"2015-07-04 05:14:00",16.1,15.8,1.8,0.0,5,1014.7,0,1,"",98
"2015-07-04 05:15:00",16.1,15.8,1.8,0.0,7,1014.7,0,1,"",98
"2015-07-04 05:16:00",16.1,15.8,1.8,0.0,7,1014.7,0,1,"",98
"2015-07-04 05:17:00",16.1,15.8,1.8,0.0,7,1014.6,0,1,"",98
"2015-07-04 05:18:00",16.1,15.8,1.8,0.0,9,1014.6,0,0,"",98
"2015-07-04 05:19:00",16.1,15.8,1.8,0.0,9,1014.6,0,1,"",98
"2015-07-04 05:20:00",16.1,15.8,1.8,0.0,11,1014.7,0,1,"",98
"2015-07-04 05:21:00",16.1,15.8,1.8,0.0,12,1014.7,0,2,"",98
"2015-07-04 05:22:00",16.1,15.8,1.8,0.0,12,1014.6,1,2,"",98
"2015-07-04 05:23:00",16.1,15.8,1.8,0.0,14,1014.6,0,1,"",98
"2015-07-04 05:24:00",16.1,15.8,1.8,0.0,16,1014.7,0,1,"",98
"2015-07-04 05:25:00",16.1,15.8,1.8,0.0,16,1014.7,0,1,"",98
"2015-07-04 05:26:00",16.1,15.8,1.8,0.0,18,1014.8,0,1,"",98
"2015-07-04 05:27:00",16.1,15.8,1.8,0.0,18,1014.8,0,1,"",98
"2015-07-04 05:28:00",16.1,15.8,1.8,0.0,18,1014.8,0,1,"",98
"2015-07-04 05:29:00",16.1,15.8,1.8,0.0,19,1014.8,0,1,"",98
"2015-07-04 05:30:00",16.1,15.8,1.8,0.0,19,1014.8,0,1,"",98
"2015-07-04 05:31:00",16.1,15.8,1.8,0.0,21,1014.8,0,1,"",98
"2015-07-04 05:32:00",16.1,15.8,1.8,0.0,23,1014.8,0,1,"",98
"2015-07-04 05:33:00",16.1,15.8,1.8,0.0,25,1014.9,0,0,"",98
"2015-07-04 05:34:00",16.1,15.8,1.8,0.0,26,1014.9,0,0,"",98
"2015-07-04 05:35:00",16.1,15.8,1.8,0.0,28,1015.0,0,1,"",98
"2015-07-04 05:36:00",16.1,15.7,1.8,0.0,28,1015.0,0,0,"",97
"2015-07-04 05:37:00",16.1,15.8,1.8,0.0,26,1015.0,0,0,"",98
"2015-07-04 05:38:00",16.1,15.8,1.8,0.0,26,1015.0,0,0,"",98
"2015-07-04 05:39:00",16.1,15.7,1.8,0.0,26,1015.0,0,0,"",97
"2015-07-04 05:40:00",16.1,15.7,1.8,0.0,26,1015.0,0,0,"",97
"2015-07-04 05:41:00",16.1,15.7,1.8,0.0,28,1015.0,0,0,"",97
"2015-07-04 05:42:00",16.1,15.7,1.8,0.0,26,1015.1,0,1,"",97
"2015-07-04 05:43:00",16.1,15.7,1.8,0.0,25,1015.2,0,1,"",97
"2015-07-04 05:44:00",16.1,15.8,1.8,0.0,23,1015.2,0,1,"",98
"2015-07-04 05:45:00",16.1,15.7,1.8,0.0,21,1015.3,0,1,"",97
"2015-07-04 05:46:00",16.1,15.7,1.8,0.0,21,1015.3,0,0,"",97
"2015-07-04 05:47:00",16.1,15.7,1.8,0.0,19,1015.3,0,0,"",97
"2015-07-04 05:48:00",16.1,15.7,1.8,0.0,18,1015.3,0,0,"",97
"2015-07-04 05:49:00",16.1,15.7,1.8,0.0,18,1015.2,0,0,"",97
"2015-07-04 05:50:00",16.1,15.7,1.8,0.0,18,1015.3,0,0,"",97
"2015-07-04 05:51:00",16.1,15.7,1.8,0.0,18,1015.3,0,0,"",97
"2015-07-04 05:52:00",16.1,15.7,1.8,0.0,18,1015.3,0,0,"",97
"2015-07-04 05:53:00",16.1,15.7,1.8,0.0,18,1015.3,0,0,"",97
"2015-07-04 05:54:00",16.1,15.7,1.8,0.0,16,1015.3,0,0,"",97
"2015-07-04 05:55:00",16.1,15.7,1.8,0.0,14,1015.3,0,1,"",97
"2015-07-04 05:56:00",16.1,15.8,1.8,0.0,14,1015.3,0,1,"",98
"2015-07-04 05:57:00",16.1,15.8,1.8,0.0,12,1015.3,0,0,"",98
"2015-07-04 05:58:00",16.1,15.8,1.8,0.0,12,1015.3,0,0,"",98
"2015-07-04 05:59:00",16.1,15.8,1.8,0.0,11,1015.3,0,1,"",98
"2015-07-04 06:00:00",16.1,15.8,1.8,0.0,11,1015.4,0,1,"",98
"2015-07-04 06:01:00",16.1,15.8,1.8,0.0,11,1015.4,0,1,"",98
"2015-07-04 06:02:00",16.1,15.8,1.8,0.0,11,1015.4,0,1,"",98
"2015-07-04 06:03:00",16.1,15.8,1.8,0.0,11,1015.5,1,1,"",98
"2015-07-04 06:04:00",16.1,15.8,1.8,0.0,11,1015.6,1,1,"",98
"2015-07-04 06:05:00",16.1,15.8,1.8,0.0,11,1015.6,0,0,"",98
"2015-07-04 06:06:00",16.1,15.7,1.8,0.0,11,1015.5,0,0,"",97
"2015-07-04 06:07:00",16.1,15.7,1.8,0.0,12,1015.5,0,1,"",97
"2015-07-04 06:08:00",16.1,15.7,1.8,0.0,12,1015.5,0,1,"",97
"2015-07-04 06:09:00",16.1,15.7,1.8,0.0,14,1015.5,0,0,"",97
"2015-07-04 06:10:00",16.1,15.7,1.8,0.0,16,1015.5,0,1,"",97
"2015-07-04 06:11:00",16.1,15.7,1.8,0.0,21,1015.4,0,1,"",97
"2015-07-04 06:12:00",16.1,15.7,1.8,0.0,19,1015.4,0,1,"",97
"2015-07-04 06:13:00",16.1,15.7,1.8,0.0,18,1015.5,0,1,"",97
"2015-07-04 06:14:00",16.1,15.7,1.8,0.0,18,1015.4,0,0,"",97
"2015-07-04 06:15:00",16.1,15.7,1.8,0.0,19,1015.5,0,0,"",97
"2015-07-04 06:16:00",16.1,15.7,1.8,0.0,26,1015.5,0,1,"",97
"2015-07-04 06:17:00",16.1,15.7,1.8,0.0,28,1015.5,0,1,"",97
"2015-07-04 06:18:00",16.1,15.7,1.8,0.0,28,1015.6,0,1,"",97
"2015-07-04 06:19:00",16.1,15.7,1.8,0.0,33,1015.5,0,1,"",97
"2015-07-04 06:20:00",16.1,15.7,1.8,0.0,33,1015.5,1,1,"",97
"2015-07-04 06:21:00",16.1,15.7,1.8,0.0,33,1015.5,0,1,"",97
"2015-07-04 06:22:00",16.1,15.7,1.8,0.0,33,1015.5,0,0,"",97
"2015-07-04 06:23:00",16.1,15.7,1.8,0.0,33,1015.5,0,0,"",97
"2015-07-04 06:24:00",16.0,15.7,1.8,0.0,35,1015.5,0,0,"",98
"2015-07-04 06:25:00",16.0,15.7,1.8,0.0,37,1015.6,0,1,"",98
"2015-07-04 06:26:00",16.0,15.7,1.8,0.0,39,1015.7,0,1,"",98
"2015-07-04 06:27:00",16.0,15.7,1.8,0.0,40,1015.7,1,1,"",98
"2015-07-04 06:28:00",16.0,15.7,1.8,0.0,40,1015.8,0,1,"",98
"2015-07-04 06:29:00",16.0,15.7,1.8,0.0,42,1015.8,0,0,"",98
"2015-07-04 06:30:00",16.0,15.7,1.8,0.0,42,1015.8,0,1,"",98
"2015-07-04 06:31:00",16.0,15.7,1.8,0.0,42,1015.9,0,1,"",98
"2015-07-04 06:32:00",16.0,15.7,1.8,0.0,42,1015.9,0,1,"",98
"2015-07-04 06:33:00",16.0,15.7,1.8,0.0,42,1015.9,0,1,"",98
"2015-07-04 06:34:00",16.0,15.7,1.8,0.0,42,1016.0,0,1,"",98
"2015-07-04 06:35:00",16.0,15.7,1.8,0.0,42,1015.9,0,1,"",98
"2015-07-04 06:36:00",16.0,15.7,1.8,0.0,42,1015.9,0,1,"",98
"2015-07-04 06:37:00",16.0,15.7,1.8,0.0,40,1015.9,0,1,"",98
"2015-07-04 06:38:00",16.0,15.7,1.8,0.0,39,1016.0,0,1,"",98
"2015-07-04 06:39:00",16.0,15.7,1.8,0.0,35,1016.0,0,1,"",98
"2015-07-04 06:40:00",16.0,15.7,1.8,0.0,28,1015.9,0,0,"",98
"2015-07-04 06:41:00",16.0,15.7,1.8,0.0,26,1015.9,0,0,"",98
"2015-07-04 06:42:00",16.0,15.7,1.8,0.0,23,1015.9,0,1,"",98